Regional Weather Roundup
Issued by NWS Little Rock, AR

Home | Current Version | Previous Version | Text Only | Print | Product List | Glossary Off
Versions: 1 2 3 4 5 6 7 8 9 10 11 12 13 14 15 16 17 18 19 20 21 22 23 24 25 26 27 28 29 30 31 32 33 34 35 36 37 38 39 40 41 42 43 44 45 46 47 48 49 50

000
ASUS44 KLZK 200105
RWRLZK

WEATHER ROUNDUP FOR ARKANSAS
NATIONAL WEATHER SERVICE LITTLE ROCK AR
700 PM CST FRI DEC 19 2014

NOTE: "FAIR" INDICATES FEW OR NO CLOUDS BELOW 12,000 FEET WITH NO
SIGNIFICANT WEATHER AND/OR OBSTRUCTIONS TO VISIBILITY.

ARZ001-003-010-029-200200-
NORTHWEST ARKANSAS

CITY           SKY/WX    TMP DP  RH WIND       PRES   REMARKS
FAYETTEVILLE   CLOUDY    41  41 100 SE3       30.19R FOG
FORT SMITH     CLOUDY    43  39  86 E5        30.22R FOG
HARRISON       FOG       36  36 100 E7        30.19S VSB 1/4
BENTONVILLE    CLOUDY    41  37  87 CALM      30.19S
ROGERS         CLOUDY    40  39  97 E3        30.19S FOG
SILOAM SPGS    CLOUDY    41  36  81 NW3       30.20S
HIGHFILL       CLOUDY    41  40  96 CALM      30.18S FOG
SPRINGDALE     CLOUDY    41  39  93 CALM      30.20S FOG
$$

ARZ004-005-016-200200-
NORTH CENTRAL ARKANSAS

CITY           SKY/WX    TMP DP  RH WIND       PRES   REMARKS
BATESVILLE     CLOUDY    39  34  81 E5        30.24S
FLIPPIN        CLOUDY    37  32  81 CALM      30.22R
MTN HOME       CLOUDY    37  34  89 E3        30.21R
$$

ARZ040-041-200200-
WEST CENTRAL ARKANSAS

CITY           SKY/WX    TMP DP  RH WIND       PRES   REMARKS
MENA           CLOUDY    45  43  93 CALM      30.20R
MOUNT IDA      CLOUDY    42  40  92 CALM      30.18R
$$

ARZ009-017-025-026-028-200200-
NORTHEAST ARKANSAS

CITY           SKY/WX    TMP DP  RH WIND       PRES   REMARKS
CORNING        LGT RAIN  37  34  87 E5        30.26S
JONESBORO      CLOUDY    39  34  82 NE6       30.26R
NEWPORT        CLOUDY    40  36  86 NE8       30.26R
WALNUT RIDGE   MOCLDY    37  30  75 NE7       30.26R
BLYTHEVILLE    CLOUDY    40  35  83 N6        30.25R
$$

ARZ022-023-033-042-044-200200-
CENTRAL ARKANSAS

CITY           SKY/WX    TMP DP  RH WIND       PRES   REMARKS
LITTLE ROCK    CLOUDY    42  35  76 NE7       30.24R
N LITTLE ROCK  CLOUDY    40  38  93 NE7       30.24R
JACKSONVILLE   CLOUDY    41  36  84 NE3       30.24R
SEARCY         CLOUDY    40  36  86 NE6       30.25S
HOT SPRINGS    CLOUDY    42  39  89 NE6       30.22R
RUSSELLVILLE   CLOUDY    43  38  82 CALM      30.22R
CLINTON        MOCLDY    41  37  87 CALM      30.25R FOG
$$

ARZ036-200200-
EAST ARKANSAS

CITY           SKY/WX    TMP DP  RH WIND       PRES   REMARKS
WEST MEMPHIS   CLOUDY    42  37  82 NE5       30.23R
$$

ARZ050-053-066-070-073-200200-
SOUTHWEST ARKANSAS

CITY           SKY/WX    TMP DP  RH WIND       PRES   REMARKS
ARKADELPHIA    CLOUDY    44  43  97 NE3       30.23R
CAMDEN         CLOUDY    46  39  76 MISG      30.21R
TEXARKANA      CLOUDY    44  42  93 NE8       30.20R
EL DORADO      CLOUDY    46  43  89 NE6       30.20R
DE QUEEN       CLOUDY    45  43  93 E3        30.20R
$$

ARZ056-057-069-200200-
SOUTHEAST ARKANSAS

CITY           SKY/WX    TMP DP  RH WIND       PRES   REMARKS
PINE BLUFF     CLOUDY    43  37  79 N9        30.22S
STUTTGART      CLOUDY    41  36  81 N9        30.23S
MONTICELLO     CLOUDY    45  41  86 NE9       30.20S

$$




USA.gov is the U.S. government's official web portal to all federal, state and local government web resources and services.